INSAT-4B

Last updated on Sat Apr 23 2022 00:02:37 GMT+0000 (Coordinated Universal Time)

1 30793U 07007A 22112.61554646 .00000071 00000+0 00000+0 0 9997 2 30793 2.1764 92.2469 0009367 101.7654 289.7460 0.99074600 26992
UTC large
Height (km)
Speed (km/s)
/
Latitude / Longitude
Inclination (degrees)
Orbital Period (minutes)
Azimuth
Elevation
Range (km)
Doppler Factor

Next 0 passes for location: London (51.5072 / 0.1276)

Sorry there are no passes over London.